Retour au catalogue

STARLINK-4732

ActifCommunicationsVLEO
NORAD 53870·PAYLOAD·🇺🇸 United States

Lancé Sep 19, 2022 depuis Cape Canaveral Space Force Station

Loading…

Prochains Passages (prochaines 24 heures)

TLE

FraisSource: CelesTrak SupGP

Époque: Sep 15, 2026, 01:30 UTC

1 53870C 22114BE  26258.06298611  .00049944  00000+0  14759-2 0  2584
2 53870  53.1559 119.0422 0001226  82.7517 339.7898 15.34358902    11

Suivez STARLINK-4732 en temps réel avec AllMySat

Download on the App Store